TimeAST,TemperatureF,Dew PointF,Humidity,Sea Level PressureIn,VisibilityMPH,Wind Direction,Wind SpeedMPH,Gust SpeedMPH,PrecipitationIn,Events,Conditions,WindDirDegrees,DateUTC
12:55 AM,66.2,59.2,78,29.97,6.2,SE,4.6,-,N/A,,Scattered Clouds,130,2012-12-05 21:55:00
1:55 AM,66.2,60.3,81,29.95,6.2,SE,8.1,-,N/A,,Mostly Cloudy,130,2012-12-05 22:55:00
2:55 AM,63.5,57.7,81,29.95,6.2,SSE,3.5,-,N/A,,Partly Cloudy,150,2012-12-05 23:55:00
3:55 AM,64.8,58.8,81,29.95,6.2,SE,3.5,-,N/A,,Clear,130,2012-12-06 00:55:00
4:55 AM,64.8,59.2,82,29.97,6.2,SSE,3.5,-,N/A,,Clear,150,2012-12-06 01:55:00
5:55 AM,61.9,56.1,81,30.00,6.2,South,3.5,-,N/A,,Clear,190,2012-12-06 02:55:00
6:55 AM,59.0,50.0,72,29.96,6.2,West,6.9,-,N/A,Rain,Light Rain Showers,270,2012-12-06 03:55:00
7:55 AM,68.7,59.2,72,30.04,6.2,SSW,4.6,-,N/A,,Clear,200,2012-12-06 04:55:00
8:55 AM,74.1,50.7,44,30.06,6.2,SSW,6.9,-,N/A,,Scattered Clouds,210,2012-12-06 05:55:00
9:55 AM,76.3,56.5,50,30.05,6.2,South,9.2,-,N/A,,Partly Cloudy,180,2012-12-06 06:55:00
10:55 AM,78.3,62.6,58,30.03,6.2,South,13.8,-,N/A,,Clear,180,2012-12-06 07:55:00
11:55 AM,81.1,56.7,43,30.01,6.2,South,10.4,-,N/A,,Partly Cloudy,190,2012-12-06 08:55:00
12:55 PM,82.4,50.9,33,29.99,6.2,SW,6.9,-,N/A,,Clear,220,2012-12-06 09:55:00
1:55 PM,82.9,47.5,29,29.98,6.2,SW,10.4,-,N/A,,Clear,230,2012-12-06 10:55:00
2:55 PM,82.8,47.3,29,29.97,6.2,South,3.5,-,N/A,,Clear,180,2012-12-06 11:55:00
3:55 PM,82.2,48.4,31,29.97,6.2,SW,3.5,-,N/A,,Clear,230,2012-12-06 12:55:00
4:55 PM,79.3,47.5,33,29.98,6.2,West,3.5,-,N/A,,Clear,260,2012-12-06 13:55:00
5:55 PM,75.4,59.4,57,30.00,6.2,ESE,6.9,-,N/A,,Clear,120,2012-12-06 14:55:00
6:55 PM,73.0,59.4,62,30.02,6.2,ENE,4.6,-,N/A,,Clear,70,2012-12-06 15:55:00
7:55 PM,71.6,62.1,72,30.03,6.2,East,4.6,-,N/A,,Mostly Cloudy,90,2012-12-06 16:55:00
8:55 PM,70.3,64.4,81,30.03,6.2,East,4.6,-,N/A,,Scattered Clouds,90,2012-12-06 17:55:00
9:55 PM,69.4,65.1,86,30.04,6.2,Calm,Calm,-,N/A,,Clear,0,2012-12-06 18:55:00
10:55 PM,67.1,62.4,85,30.04,6.2,Calm,Calm,-,N/A,,Clear,0,2012-12-06 19:55:00
11:55 PM,64.9,60.8,86,30.03,1.0,Calm,Calm,-,N/A,,Clear,0,2012-12-06 20:55:00